| time (UTC) | temp F | wind direction | speed knots | gust knots | rain 1hr in | rain 24hr in | rain mn in | humidity % | barometer mb |
| 20260505200426 | 62 | 359 | 0.9 | 5.2 | 0.00 | 0.29 | 1.10 | 77 | 1016.9 |
| 20260505195423 | 62 | 359 | 0.0 | 2.6 | 0.00 | 0.29 | 1.10 | 77 | 1016.9 |
| 20260505194424 | 62 | 359 | 1.7 | 4.3 | 0.00 | 0.29 | 1.10 | 78 | 1016.9 |
| 20260505193417 | 61 | 359 | 0.9 | 4.3 | 0.00 | 0.29 | 1.10 | 77 | 1017.0 |
| 20260505192418 | 61 | 359 | 2.6 | 5.2 | 0.00 | 0.29 | 1.10 | 76 | 1017.1 |
| 20260505191418 | 61 | 359 | 1.7 | 4.3 | 0.00 | 0.29 | 1.10 | 77 | 1016.9 |
| 20260505190416 | 61 | 359 | 1.7 | 3.5 | 0.00 | 0.29 | 1.10 | 78 | 1016.9 |
| 20260505185429 | 61 | 359 | 1.7 | 4.3 | 0.00 | 0.29 | 1.10 | 79 | 1016.9 |
| 20260505184425 | 60 | 359 | 1.7 | 3.5 | 0.00 | 0.29 | 1.10 | 79 | 1016.8 |
| 20260505183451 | 60 | 359 | 1.7 | 3.5 | 0.00 | 0.29 | 1.10 | 80 | 1016.8 |
| 20260505182429 | 60 | 359 | 0.9 | 3.5 | 0.00 | 0.29 | 1.10 | 82 | 1017.0 |
| 20260505181424 | 59 | 359 | 0.9 | 3.5 | 0.00 | 0.29 | 1.10 | 83 | 1016.9 |
| 20260505180423 | 58 | 359 | 0.9 | 2.6 | 0.00 | 0.29 | 1.10 | 84 | 1016.9 |
| 20260505175424 | 57 | 359 | 0.9 | 3.5 | 0.00 | 0.29 | 1.10 | 83 | 1016.8 |
| 20260505174422 | 57 | 359 | 1.7 | 3.5 | 0.00 | 0.29 | 1.10 | 85 | 1016.6 |
| 20260505173418 | 57 | 359 | 1.7 | 3.5 | 0.00 | 0.29 | 1.10 | 86 | 1016.5 |
| 20260505172431 | 57 | 359 | 0.9 | 2.6 | 0.00 | 0.29 | 1.10 | 88 | 1016.5 |
| 20260505171431 | 56 | 359 | 0.9 | 3.5 | 0.00 | 0.29 | 1.10 | 89 | 1016.4 |
| 20260505170427 | 56 | 359 | 0.0 | 1.7 | 0.00 | 0.29 | 1.10 | 91 | 1016.6 |
| 20260505165427 | 55 | 359 | 0.9 | 2.6 | 0.00 | 0.29 | 1.10 | 92 | 1016.5 |
| 20260505164427 | 55 | 359 | 0.0 | 2.6 | 0.00 | 0.29 | 1.10 | 92 | 1016.4 |
| 20260505163448 | 55 | 359 | 1.7 | 3.5 | 0.00 | 0.29 | 1.10 | 92 | 1016.5 |
| 20260505162423 | 55 | 359 | 0.0 | 0.9 | 0.00 | 0.29 | 1.10 | 93 | 1016.5 |
| 20260505161423 | 54 | 359 | 0.9 | 1.7 | 0.00 | 0.29 | 1.10 | 93 | 1016.5 |
| 20260505160422 | 54 | 359 | 0.0 | 2.6 | 0.00 | 0.29 | 1.10 | 94 | 1016.4 |
| 20260505152413 | 53 | 359 | 0.9 | 2.6 | 0.00 | 0.29 | 1.10 | 95 | 1016.1 |
| 20260505151414 | 53 | 359 | 0.0 | 2.6 | 0.00 | 0.29 | 1.10 | 95 | 1016.1 |
| 20260505150415 | 53 | 359 | 0.9 | 1.7 | 0.00 | 0.29 | 1.10 | 95 | 1016.0 |
| 20260505140416 | 52 | 359 | 0.0 | 0.9 | 0.00 | 0.29 | 1.10 | 96 | 1015.9 |
| 20260505124426 | 52 | 359 | 0.0 | 1.7 | 0.00 | 0.29 | 1.10 | 96 | 1015.4 |
| 20260505123426 | 52 | 359 | 0.0 | 1.7 | 0.00 | 0.29 | 1.10 | 96 | 1015.3 |
| 20260505121447 | 52 | 359 | 0.0 | 1.7 | 0.00 | 0.29 | 1.10 | 96 | 1015.4 |
| 20260505120428 | 52 | 359 | 0.0 | 1.7 | 0.00 | 0.29 | 1.10 | 96 | 1015.4 |
| 20260505115418 | 52 | 359 | 0.0 | 1.7 | 0.00 | 0.29 | 1.10 | 96 | 1015.4 |
| 20260505114449 | 51 | 359 | 0.9 | 1.7 | 0.00 | 0.29 | 1.10 | 96 | 1015.4 |
| 20260505113430 | 51 | 359 | 0.9 | 1.7 | 0.00 | 0.29 | 1.10 | 96 | 1015.4 |
| 20260505112421 | 51 | 359 | 0.0 | 1.7 | 0.00 | 0.29 | 1.10 | 96 | 1015.5 |
| 20260505111422 | 51 | 359 | 0.0 | 1.7 | 0.00 | 0.29 | 1.10 | 96 | 1015.5 |
| 20260505110421 | 51 | 359 | 0.0 | 3.5 | 0.00 | 0.29 | 1.10 | 95 | 1015.6 |
| 20260505101429 | 51 | 359 | 0.0 | 2.6 | 0.01 | 0.29 | 1.10 | 96 | 1015.7 |
| 20260505100432 | 51 | 359 | 0.0 | 2.6 | 0.01 | 0.29 | 1.10 | 95 | 1015.7 |
| 20260505095431 | 51 | 359 | 0.0 | 2.6 | 0.02 | 0.29 | 1.10 | 95 | 1015.5 |
| 20260505094431 | 52 | 359 | 0.9 | 1.7 | 0.03 | 0.29 | 1.10 | 95 | 1015.8 |
| 20260505093452 | 52 | 359 | 0.9 | 2.6 | 0.03 | 0.29 | 1.10 | 95 | 1015.8 |
| 20260505092430 | 52 | 359 | 0.0 | 1.7 | 0.04 | 0.29 | 1.10 | 95 | 1016.0 |
| 20260505091423 | 52 | 359 | 0.9 | 1.7 | 0.04 | 0.28 | 1.00 | 95 | 1016.0 |
| 20260505090416 | 52 | 359 | 0.9 | 1.7 | 0.05 | 0.28 | 1.00 | 95 | 1016.0 |
| 20260505085434 | 52 | 359 | 0.9 | 2.6 | 0.05 | 0.27 | 0.90 | 95 | 1016.1 |
| 20260505084432 | 52 | 359 | 0.0 | 0.9 | 0.05 | 0.26 | 0.80 | 95 | 1016.2 |
| 20260505083431 | 52 | 359 | 0.0 | 0.9 | 0.06 | 0.26 | 0.80 | 95 | 1016.4 |
| 20260505082424 | 52 | 359 | 0.0 | 2.6 | 0.06 | 0.25 | 0.70 | 95 | 1016.4 |
| 20260505081444 | 52 | 359 | 0.0 | 2.6 | 0.06 | 0.24 | 0.60 | 95 | 1016.3 |
| 20260505080423 | 51 | 359 | 0.0 | 1.7 | 0.05 | 0.23 | 0.50 | 95 | 1016.3 |
| 20260505075420 | 51 | 359 | 0.0 | 0.9 | 0.05 | 0.22 | 0.40 | 95 | 1016.5 |
| 20260505074413 | 51 | 359 | 0.0 | 0.9 | 0.04 | 0.21 | 0.30 | 95 | 1016.4 |
| 20260505073427 | 51 | 359 | 0.0 | 0.9 | 0.03 | 0.20 | 0.20 | 95 | 1016.6 |
| 20260505072427 | 51 | 359 | 0.0 | 0.9 | 0.03 | 0.19 | 0.10 | 95 | 1016.4 |
| 20260505071448 | 51 | 359 | 0.0 | 0.9 | 0.03 | 0.18 | 0.00 | 94 | 1016.5 |
| 20260505070441 | 51 | 359 | 0.0 | 0.0 | 0.04 | 0.18 | 0.00 | 94 | 1016.7 |
| 20260505065420 | 51 | 359 | 0.0 | 0.0 | 0.04 | 0.17 | 1.70 | 94 | 1016.7 |
| 20260505064420 | 51 | 359 | 0.0 | 0.0 | 0.05 | 0.17 | 1.70 | 94 | 1016.8 |
| 20260505063421 | 51 | 359 | 0.0 | 0.9 | 0.06 | 0.17 | 1.70 | 94 | 1016.7 |
| 20260505062421 | 51 | 359 | 0.0 | 1.7 | 0.06 | 0.16 | 1.60 | 93 | 1016.6 |
| 20260505061437 | 51 | 359 | 0.0 | 1.7 | 0.06 | 0.15 | 1.50 | 93 | 1016.3 |
| 20260505060417 | 51 | 359 | 0.0 | 1.7 | 0.05 | 0.14 | 1.40 | 93 | 1016.3 |
| 20260505055430 | 51 | 359 | 0.0 | 0.9 | 0.05 | 0.13 | 1.30 | 93 | 1016.5 |
| 20260505054412 | 51 | 359 | 0.0 | 0.0 | 0.05 | 0.12 | 1.20 | 93 | 1016.6 |
| 20260505053415 | 52 | 359 | 0.0 | 0.9 | 0.05 | 0.11 | 1.10 | 92 | 1016.8 |
| 20260505052428 | 52 | 359 | 0.0 | 0.0 | 0.05 | 0.10 | 1.00 | 92 | 1016.4 |
| 20260505051425 | 52 | 359 | 0.0 | 0.9 | 0.05 | 0.09 | 0.90 | 92 | 1016.4 |
| 20260505050425 | 52 | 359 | 0.0 | 0.9 | 0.06 | 0.09 | 0.90 | 91 | 1016.4 |
| 20260505041416 | 53 | 359 | 0.0 | 0.9 | 0.03 | 0.04 | 0.40 | 91 | 1017.1 |
| 20260505040430 | 53 | 359 | 0.0 | 0.0 | 0.02 | 0.03 | 0.30 | 91 | 1017.1 |
| 20260505035412 | 53 | 359 | 0.0 | 0.0 | 0.02 | 0.02 | 0.20 | 90 | 1016.8 |
| 20260505034412 | 53 | 359 | 0.0 | 0.9 | 0.02 | 0.02 | 0.20 | 89 | 1016.4 |
| 20260505033415 | 53 | 359 | 0.9 | 1.7 | 0.02 | 0.02 | 0.20 | 88 | 1016.2 |
| 20260505032414 | 54 | 359 | 0.0 | 2.6 | 0.01 | 0.01 | 0.10 | 88 | 1016.0 |
| 20260505031427 | 54 | 359 | 0.9 | 3.5 | 0.01 | 0.01 | 0.10 | 89 | 1015.9 |
| 20260505030442 | 54 | 359 | 0.9 | 4.3 | 0.01 | 0.01 | 0.10 | 89 | 1015.9 |
| 20260505025420 | 54 | 359 | 0.9 | 2.6 | 0.00 | 0.00 | 0.00 | 88 | 1015.9 |
| 20260505024415 | 54 | 359 | 0.0 | 4.3 | 0.00 | 0.00 | 0.00 | 88 | 1015.9 |
| 20260505023411 | 55 | 359 | 0.9 | 4.3 | 0.00 | 0.00 | 0.00 | 88 | 1016.0 |
| 20260505022413 | 55 | 359 | 0.9 | 2.6 | 0.00 | 0.00 | 0.00 | 88 | 1016.0 |
| 20260505021413 | 55 | 359 | 0.9 | 3.5 | 0.00 | 0.00 | 0.00 | 87 | 1016.0 |
| 20260505020415 | 56 | 359 | 0.0 | 2.6 | 0.00 | 0.00 | 0.00 | 87 | 1015.9 |
| 20260505015436 | 56 | 359 | 0.9 | 4.3 | 0.00 | 0.00 | 0.00 | 87 | 1016.2 |
| 20260505014440 | 56 | 359 | 0.9 | 1.7 | 0.00 | 0.00 | 0.00 | 86 | 1016.2 |
| 20260505013440 | 56 | 359 | 0.9 | 3.5 | 0.00 | 0.00 | 0.00 | 84 | 1016.4 |
| 20260505012426 | 57 | 359 | 0.9 | 3.5 | 0.00 | 0.00 | 0.00 | 83 | 1016.3 |
| 20260505011432 | 57 | 359 | 0.9 | 2.6 | 0.00 | 0.00 | 0.00 | 82 | 1016.4 |
| 20260505010431 | 58 | 359 | 0.0 | 1.7 | 0.00 | 0.00 | 0.00 | 80 | 1016.4 |
| 20260505005430 | 58 | 359 | 0.9 | 3.5 | 0.00 | 0.00 | 0.00 | 80 | 1016.2 |
| 20260505004432 | 59 | 359 | 0.9 | 2.6 | 0.00 | 0.00 | 0.00 | 78 | 1016.3 |
| 20260505003429 | 59 | 359 | 0.9 | 2.6 | 0.00 | 0.00 | 0.00 | 73 | 1016.3 |
| 20260505002423 | 59 | 359 | 0.9 | 2.6 | 0.00 | 0.00 | 0.00 | 71 | 1016.4 |
| 20260505001422 | 59 | 359 | 1.7 | 5.2 | 0.00 | 0.00 | 0.00 | 72 | 1016.3 |
| 20260505000423 | 60 | 359 | 0.9 | 4.3 | 0.00 | 0.00 | 0.00 | 71 | 1016.3 |
| 20260504235425 | 60 | 359 | 0.9 | 3.5 | 0.00 | 0.00 | 0.00 | 70 | 1016.2 |
| 20260504234443 | 60 | 359 | 0.9 | 3.5 | 0.00 | 0.00 | 0.00 | 68 | 1016.2 |
| 20260504233424 | 60 | 359 | 1.7 | 3.5 | 0.00 | 0.00 | 0.00 | 69 | 1016.2 |
| 20260504232443 | 61 | 359 | 0.9 | 2.6 | 0.00 | 0.00 | 0.00 | 70 | 1016.1 |
| 20260504231422 | 61 | 359 | 0.9 | 5.2 | 0.00 | 0.00 | 0.00 | 70 | 1016.1 |
| 20260504230441 | 62 | 359 | 1.7 | 3.5 | 0.00 | 0.00 | 0.00 | 68 | 1016.1 |
| 20260504225420 | 62 | 359 | 0.9 | 2.6 | 0.00 | 0.00 | 0.00 | 69 | 1016.1 |
| 20260504224415 | 62 | 359 | 0.9 | 5.2 | 0.00 | 0.00 | 0.00 | 69 | 1016.0 |
| 20260504223459 | 62 | 359 | 0.9 | 2.6 | 0.00 | 0.00 | 0.00 | 67 | 1016.2 |
| 20260504222435 | 62 | 359 | 0.9 | 3.5 | 0.00 | 0.00 | 0.00 | 67 | 1016.3 |
| 20260504221425 | 63 | 359 | 0.9 | 2.6 | 0.00 | 0.00 | 0.00 | 65 | 1016.4 |
| 20260504220424 | 63 | 359 | 0.9 | 2.6 | 0.00 | 0.00 | 0.00 | 65 | 1016.3 |
| 20260504215418 | 64 | 359 | 1.7 | 4.3 | 0.00 | 0.00 | 0.00 | 65 | 1016.5 |
| 20260504214419 | 63 | 359 | 0.9 | 3.5 | 0.00 | 0.00 | 0.00 | 67 | 1016.3 |
| 20260504213419 | 63 | 359 | 0.0 | 2.6 | 0.00 | 0.00 | 0.00 | 70 | 1016.4 |
| 20260504212439 | 63 | 359 | 1.7 | 5.2 | 0.00 | 0.00 | 0.00 | 72 | 1016.4 |
| 20260504211413 | 62 | 359 | 1.7 | 4.3 | 0.00 | 0.00 | 0.00 | 69 | 1016.5 |
| 20260504210415 | 62 | 359 | 3.5 | 7.0 | 0.00 | 0.00 | 0.00 | 69 | 1016.3 |
| 20260504205418 | 63 | 359 | 1.7 | 7.0 | 0.00 | 0.00 | 0.00 | 70 | 1016.4 |
| 20260504204418 | 63 | 359 | 2.6 | 7.8 | 0.00 | 0.00 | 0.00 | 70 | 1016.5 |
| 20260504203429 | 64 | 359 | 0.9 | 3.5 | 0.00 | 0.00 | 0.00 | 69 | 1016.5 |
| 20260504202429 | 64 | 359 | 1.7 | 4.3 | 0.00 | 0.00 | 0.00 | 68 | 1016.4 |
| 20260504201449 | 64 | 359 | 1.7 | 5.2 | 0.00 | 0.00 | 0.00 | 67 | 1016.3 |